User: anonymous   Login
Location: Bangkok
(13.7500°N, 100.5170°E)
Time: 10:59:39
(UTC+07:00)
Language:

Cosmos 1802 Rocket - Orbit

View from above orbital plane
View from above orbital plane
View from above satellite
View from above satellite

Ground track
Ground track

The orbit data is extracted from the following two-line orbital elements,

1 17160U 86093B   14303.82887990  .00000080  00000-0  68848-4 0  1979
2 17160 082.9301 056.7156 0037701 305.4843 212.9007 13.74527794400931
Epoch (UTC): 30 October 2014 19:53:35
Eccentricity: 0.0037701
inclination: 82.9301°
perigee height: 955 km
apogee height: 1011 km
right ascension of ascending node: 56.7156°
argument of perigee: 305.4843°
revolutions per day: 13.74527794
mean anomaly at epoch: 212.9007°
orbit number at epoch: 40093

The dashed part of the orbit path shows where the satellite is in the earth's shadow,  

DLR